STARLINK-55 (44268 NORAD) Tracking and Keplerian Element Data

This shows tracking and keplerian element data for the satellite.

Feedback or suggestion? Click here.




ElementValue
Catalog44268
NameSTARLINK-55
Epoch Orbit10120
Epoch Day68.04847412
Epoch Year2021
RAAN298.079
Inclination53.1
Eccentricity0.0004294
Argument of Perigee211.0752
Mean Anonmoly300.1477
Mean Motion16.55493516
Decay Rate0.99999999
L11 44268U 19029AK 21068.04847412 .99999999 12761-4 62063-3 0 9995
L22 44268 53.1000 298.0790 0004294 211.0752 300.1477 16.55493516101208



Live tracking and technical data element details for STARLINK-55 (NORAD 44268). STARLINK-55 can be tracked NOW for your location showing map with azimuth and elevation plus other details from your city location.







IsCatalogInMostPopularTable: catalog: 44268, numindb: 327
Update: records affected: 1



GetName: 44268 STARLINK-55

Hit Count: updated at: Thu, 21 May 2026 11:57:39 GMT